User: anonymous   Login
Location: Newark
(40.3500°N, 15.2333°E)
Time: 09:54:12
(UTC+00:00)
Language:

Transit 2A Rocket - Orbit

View from above orbital plane
View from above orbital plane
View from above satellite
View from above satellite

Ground track
Ground track

The orbit data is extracted from the following two-line orbital elements,

1    47U 60007C   20019.82708148 -.00000038  00000-0  16460-4 0  9997
2    47  66.6641 195.0939 0221999  51.5148 310.5639 14.42068947113551
Epoch (UTC): 19 January 2020 19:50:59
Eccentricity: 0.0221999
inclination: 66.6641°
perigee height: 593 km
apogee height: 910 km
right ascension of ascending node: 195.0939°
argument of perigee: 51.5148°
revolutions per day: 14.42068947
mean anomaly at epoch: 310.5639°
orbit number at epoch: 11355

The dashed part of the orbit path shows where the satellite is in the earth's shadow,  

DLR